Location: Brodeslavy
(49.9527°N, 13.5567°E)
Time: 14:59:46
(UTC+00:00)

Okean 1 Rocket - Pass Details

Date: 17 June 2025
Orbit: 601 x 627 km, 82.5° (Epoch: 20 July)

Event Time Altitude Azimuth Distance (km) Brightness Sun altitude
Rises 23:37:57 0° 354° (N) 2,929 8.1 -16.3°
Reaches altitude 10° 23:40:18 10° 1° (N) 2,017 7.0 -16.3°
Maximum altitude 23:44:35 44° 74° (ENE) 870 4.0 -16.2°
Enters shadow 23:47:44 17° 141° (SE) 1,593 4.8 -16.1°
